Weather Roundup
Issued by NWS Chicago, IL

Home | Current Version | Previous Version | Graphics & Text | Print | Product List | Glossary On
Versions: 1 2 3 4 5 6 7 8 9 10 11 12 13 14 15 16 17 18 19 20 21 22 23 24 25 26 27 28 29 30 31 32 33 34 35 36 37 38 39 40 41 42 43 44 45 46 47 48 49 50
000
NZUS59 KLOT 262308
HRRLOT

CHICAGO AREA WEATHER ROUNDUP
NATIONAL WEATHER SERVICE CHICAGO/ROMEOVILLE IL
500 PM CST SUN FEB 26 2017

NOTE: "FAIR" INDICATES FEW OR NO CLOUDS BELOW 12,000 FEET WITH NO
SIGNIFICANT WEATHER AND/OR OBSTRUCTIONS TO VISIBILITY.

* THESE STATIONS ARE NOT UNDER NWS QUALITY CONTROL. THEY ALSO MAY NOT
  REPORT WEATHER SUCH AS PRECIPITATION OR FOG.

ILZ005-006-012>014-019>023-270000-
NORTHEAST ILLINOIS

CITY           SKY/WX    TMP DP  RH WIND       PRES   REMARKS
OHARE          PTCLDY    48  22  35 SW16G26   29.94R
MIDWAY         PTCLDY    47  19  33 SW18      29.96R
AURORA         PTCLDY    46  23  40 SW10      29.95R
LANSING*       MOCLDY    47  25  42 W14G22    29.98R
JOLIET*        PTCLDY    48  23  36 SW8G17    29.97S
WAUKEGAN       PTCLDY    45  22  40 SW13G22   29.91R
DUPAGE AIRPORT PTCLDY    45  21  38 SW15      29.94R
WHEELING       PTCLDY    46  19  34 SW14G26   29.94R
KANKAKEE*      CLEAR     46  20  36 SW21G28   30.02R
MORRIS*        PTCLDY    46  22  39 SW9G17    29.96S
LEWIS AIRPORT* CLEAR     45  26  47 SW10G18   29.96S
NORTHERLY ISL    N/A     47  17  30 SW8         N/A
$$

WIZ051-052-058>065-066-070>072-270000-
SOUTHEAST WISCONSIN

CITY           SKY/WX    TMP DP  RH WIND       PRES   REMARKS
MILWAUKEE      PTCLDY    45  22  40 W14G24    29.90R
KENOSHA*       CLEAR     43  23  45 W18G28    29.91R
RACINE*        CLEAR     44  22  41 SW12G22   29.92R
WAUKESHA       PTCLDY    39  21  48 W17G25    29.89R
WEST BEND      CLEAR     39  25  56 W12G18    29.87R
$$

INZ001>003-010>013-019-020-270000-
NORTHWEST INDIANA

CITY           SKY/WX    TMP DP  RH WIND       PRES   REMARKS
GARY*          PTCLDY    48  12  23 SW17G32   29.98R
MICHIGAN CITY* NOT AVBL
RENSSELAER*    NOT AVBL
VALPARAISO     CLOUDY    48  20  32 SW17      29.99R
$$

LMZ740>746-270000-
SOUTHERN LAKE MICHIGAN

STATION/POSITION TIME  SKY/WX   TEMP WIND        PRES    VSBY
                                AIR  DIR/SP/G
                 (UTC)          (F)  (DEG/KT/KT) (MB)    (MI)
HARRISON CRIB    2240            48  230/ 21/ 25   N/A
BURNHAM HARBOR   2300            47  230/  9/ 19   N/A
CALUMET HARBOR   2248            47  220/ 14/ 18 1014.2R
BURNS HARBOR     2240            47  230/ 19/ 27 1015.6R
MICHIGAN CITY    2240            46  200/ 21/ 25   N/A
$$

ABBREVIATIONS USED IN REMARKS
   TC - TEMPERATURE IN CELSIUS
  WCI - WIND CHILL INDEX
   HX - HEAT INDEX
  VSB - VISIBILITY
$$




USA.gov is the U.S. government's official web portal to all federal, state and local government web resources and services.